This demonstration page uses our WeatherBlox Daily Observations layout. Learn more.

Left ArrowRight Arrow

47.50024, -111.30081

Hourly Observations for April 19, 2019

Temp ( °F °C ) Dew Point ( °F °C ) Humidity (%) Winds ( mph kmh ) Pressure ( in mb ) Visibility ( mi km ) Precip ( " mm )
12:53 am 00:53 Clear 57 13.9 38 3.3 49 49 SW 18 30 29.92 1013 10 16 0.00 0.00
1:53 am 01:53 Clear 60 15.6 39 3.9 46 46 WSW 21 33 29.89 1012 10 16 0.00 0.00
2:53 am 02:53 Clear 59 15 38 3.3 46 46 SW 24 39 29.88 1012 10 16 0.00 0.00
3:53 am 03:53 Clear 59 15 39 3.9 48 48 WSW 30 48 29.86 1011 10 16 0.00 0.00
4:53 am 04:53 Clear 57 13.9 38 3.3 49 49 SSW 18 30 29.89 1012 10 16 0.00 0.00
5:53 am 05:53 Mostly Clear 57 13.9 39 3.9 51 51 SW 23 37 29.89 1012 10 16 0.00 0.00
6:53 am 06:53 Mostly Sunny 57 13.9 39 3.9 51 51 SW 22 35 29.90 1013 10 16 0.00 0.00
7:53 am 07:53 Sunny 59 15 39 3.9 48 48 SW 18 30 29.89 1012 10 16 0.00 0.00
8:53 am 08:53 Sunny 63 17.2 39 3.9 41 41 SW 25 41 29.87 1012 10 16 0.00 0.00
9:53 am 09:53 Sunny 67 19.4 40 4.4 37 37 SW 28 44 29.85 1011 10 16 0.00 0.00
10:53 am 10:53 Sunny 69 20.6 40 4.4 35 35 SW 25 41 29.83 1010 10 16 0.00 0.00
11:53 am 11:53 Sunny 70 21.1 41 5 35 35 WSW 28 44 29.82 1010 10 16 0.00 0.00
12:53 pm 12:53 Sunny 69 20.6 41 5 36 36 WSW 25 41 29.80 1009 10 16 0.00 0.00
1:53 pm 13:53 Sunny 70 21.1 40 4.4 34 34 WSW 23 37 29.76 1008 10 16 0.00 0.00
2:53 pm 14:53 Sunny 72 22.2 40 4.4 31 31 W 25 41 29.72 1007 10 16 0.00 0.00
3:53 pm 15:53 Sunny 76 24.4 38 3.3 25 25 W 28 44 29.67 1005 10 16 0.00 0.00
4:53 pm 16:53 Sunny 73 22.8 39 3.9 29 29 W 21 33 29.66 1005 10 16 0.00 0.00
5:53 pm 17:53 Partly Cloudy 74 23.3 37 2.8 26 26 W 20 31 29.64 1004 10 16 0.00 0.00
6:53 pm 18:53 Partly Cloudy 73 22.8 35 1.7 25 25 W 23 37 29.63 1004 10 16 0.00 0.00
7:53 pm 19:53 Mostly Sunny 65 18.3 38 3.3 37 37 W 12 19 29.65 1004 10 16 0.00 0.00
8:53 pm 20:53 Mostly Cloudy 65 18.3 40 4.4 40 40 W 31 50 29.65 1004 10 16 0.00 0.00
9:18 pm 21:18 Cloudy with Light Rain 60 15.6 44 6.7 56 56 VRB 7 11 29.62 1003 8 13 0.00 0.03
9:53 pm 21:53 Mostly Cloudy 56 13.3 46 7.8 70 70 WSW 13 20 29.69 1006 10 16 0.00 0.03
10:53 pm 22:53 Cloudy 55 12.8 45 7.2 69 69 WNW 10 17 29.69 1005 10 16 0.00 0.00
11:53 pm 23:53 Mostly Cloudy 53 11.7 44 6.7 72 72 W 9 15 29.71 1006 10 16 0.00 0.00

Powered by AerisWeather